{"data":{"norad_id":69153,"intl_designator":"2026-111F","name":"STARLINK-37374","alt_names":[],"object_type":"PAYLOAD","status":"ACTIVE","operator":null,"country":"US","launch_date":"2026-05-21","launch_site_code":"AFETR","launch_vehicle":null,"mission":null,"orbit_class":"UNKNOWN","rcs_meters":null,"size_class":null,"mass_kg":null,"dimensions":null,"purposes":["comms"],"wikipedia_slug":null,"has_3d_model":false,"image_url":null,"decayed_at":null,"tle_current":{"epoch":"2026-09-20T00:45:47.611584Z","epoch_age_seconds":63600,"freshness":"FRESH","line1":"1 69153U 26111F   26263.03180106  .00020649  00000+0  62028-3 0  9994","line2":"2 69153  53.1520  68.1673 0002358 163.0379 197.0703 15.34414060 18824","mean_motion":15.3441406,"eccentricity":0.0002358,"inclination_deg":53.152,"raan_deg":68.1673,"arg_perigee_deg":163.0379,"mean_anomaly_deg":197.0703,"bstar":0.00062028,"rev_number":1882,"period_min":93.846898144299,"perigee_km":461.04839096839,"apogee_km":464.274511518,"semimajor_km":6840.7984512432,"source":"CELESTRAK","updated_at":"2026-09-20T09:00:44.090379Z"}}}